Flag for U.S.A. Weather past 2 weeks in Richmond, Virginia, U.S.A.

Now
62 °F

Drizzle. Fog.


Feels Like: 62 °F
Forecast: 60 / 64 °F
Wind: 8 mph from Northeast

Location: Richmond International Airport

Current Time: Jun 3, 2015 at 6:12:47 PM

Latest Report: Jun 3, 2015 at 4:54 PM


Visibility: 2 mi

Pressure: 30.13 "Hg

Humidity: 90%

Dew point: 59 °F

Location of RichmondLocation

Historic Weather in Richmond — Graph

°F

Richmond temperature yesterday

Maximum temperature yesterday: 79 °F (at 12:54 PM)
Minimum temperature yesterday: 61 °F (at 11:54 PM)
Average temperature yesterday: 70 °F

Past Weeks' High & Low Weather Summary

 TemperatureHumidityPressure
High90 °F (May 31, 2:54 PM)93% (May 21, 10:54 AM)30.48 "Hg (May 21, 10:54 AM)
Low52 °F (May 22, 5:54 AM)26% (May 22, 4:54 PM)29.86 "Hg (May 19, 5:54 PM)
Average72 °F67%30.15 "Hg
* Reported May 19 4:54 PM — Jun 3 4:54 PM, Richmond, Weather by CustomWeather, © 2015

Note: Actual official high and low records may vary slightly from our data, if they occured in-between our weather recording intervals... More about our weather records

Advertising

Richmond weather history for previous 24 hours

 ConditionsComfort  
Time TempWeatherWind HumidityBarometerVisibility
4:54 PM
Wed, Jun 3
62 °FDrizzle. Fog.8 mph90%30.13 "Hg2 mi
3:54 PM63 °FLow clouds.7 mph87%30.13 "Hg10 mi
2:54 PM63 °FLight rain. Low clouds.8 mph90%30.14 "Hg10 mi
1:54 PM63 °FLight rain. Fog.10 mph90%30.15 "Hg2 mi
12:54 PM61 °FHeavy rain. Fog.6 mph93%30.16 "Hg2 mi
12:02 PM61 °FHeavy rain. Fog.9 mph88%30.15 "Hg1 mi
10:54 AM61 °FDrizzle. Fog.9 mph90%30.15 "Hg2 mi
9:54 AM60 °FLight rain. Fog.10 mph93%30.14 "Hg2 mi
8:54 AM60 °FLow clouds.10 mph90%30.14 "Hg10 mi
7:54 AM60 °FLow clouds.13 mph90%30.12 "Hg7 mi
6:54 AM59 °FFog.10 mph93%30.10 "Hg4 mi
5:54 AM60 °FDrizzle. Fog.8 mph90%30.09 "Hg4 mi
4:54 AM60 °FLight rain. Fog.9 mph93%30.09 "Hg4 mi
3:54 AM61 °FLight rain. Low clouds.8 mph90%30.09 "Hg10 mi
2:54 AM61 °FLight rain. Fog.8 mph93%30.08 "Hg6 mi
1:54 AM61 °FDrizzle. Fog.8 mph93%30.09 "Hg3 mi
12:54 AM61 °FDrizzle. Fog.7 mph93%30.10 "Hg3 mi
11:54 PM
Tue, Jun 2
61 °FDrizzle. Fog.9 mph93%30.10 "Hg3 mi
10:54 PM62 °FFog.10 mph90%30.08 "Hg6 mi
9:54 PM62 °FLow clouds.8 mph90%30.08 "Hg7 mi
8:54 PM62 °FLow clouds.13 mph90%30.07 "Hg10 mi
7:54 PM63 °FLow clouds.9 mph90%30.06 "Hg10 mi
6:54 PM64 °FRain. Low clouds.13 mph90%30.04 "Hg8 mi
Weather by CustomWeather, © 2015

See weather overviewHow to use our weather pages